Previsão horária em Abay

Hoje, 18 Abril, Domingo

Tempo Temperatura Precipitação Vento Pressão Humidade
00:00 +13°C° 0 mm 2 m/s 694 mmHg 56%
01:00 +11°C° 0 mm 3 m/s 694 mmHg 54%
02:00 +11°C° 0 mm 3 m/s 693 mmHg 53%
03:00 +11°C° 0 mm 3 m/s 694 mmHg 52%
04:00 +10°C° 0 mm 3 m/s 694 mmHg 52%
05:00 +10°C° 0 mm 3 m/s 694 mmHg 52%
06:00 +13°C° 0 mm 2 m/s 694 mmHg 50%
07:00 +15°C° 0 mm 2 m/s 694 mmHg 48%
08:00 +18°C° 0 mm 1 m/s 694 mmHg 45%
09:00 +18°C° 0 mm 1 m/s 694 mmHg 46%
10:00 +18°C° 0 mm 2 m/s 694 mmHg 46%
11:00 +19°C° 0 mm 2 m/s 694 mmHg 48%
12:00 +19°C° 0.2 mm 2 m/s 694 mmHg 48%
13:00 +19°C° 0.2 mm 2 m/s 694 mmHg 48%
14:00 +19°C° 0.2 mm 2 m/s 693 mmHg 49%
15:00 +19°C° 0.5 mm 2 m/s 693 mmHg 49%
16:00 +20°C° 0.5 mm 1 m/s 693 mmHg 50%
17:00 +19°C° 0 mm 1 m/s 693 mmHg 52%
18:00 +17°C° 0.6 mm 2 m/s 694 mmHg 59%
19:00 +14°C° 0.6 mm 4 m/s 694 mmHg 66%
20:00 +13°C° 0.6 mm 5 m/s 695 mmHg 73%
21:00 +12°C° 0.9 mm 4 m/s 695 mmHg 74%
22:00 +12°C° 0.9 mm 4 m/s 695 mmHg 74%
23:00 +12°C° 0.9 mm 4 m/s 695 mmHg 75%

Amanhã, 19 Abril, Segunda-feira

Tempo Temperatura Precipitação Vento Pressão Humidade
00:00 +12°C° 0.2 mm 3 m/s 694 mmHg 72%
01:00 +13°C° 0.2 mm 2 m/s 694 mmHg 70%
02:00 +13°C° 0.2 mm 2 m/s 694 mmHg 67%
03:00 +13°C° 0 mm 2 m/s 694 mmHg 67%
04:00 +12°C° 0 mm 2 m/s 694 mmHg 66%
05:00 +12°C° 0 mm 2 m/s 694 mmHg 66%
06:00 +13°C° 0 mm 1 m/s 694 mmHg 61%
07:00 +15°C° 0 mm 1 m/s 694 mmHg 56%
08:00 +15°C° 0 mm 0 m/s 694 mmHg 51%
09:00 +18°C° 0 mm 1 m/s 694 mmHg 47%
10:00 +18°C° 0 mm 2 m/s 694 mmHg 44%
11:00 +19°C° 0 mm 2 m/s 693 mmHg 40%
12:00 +19°C° 0.1 mm 2 m/s 693 mmHg 41%
13:00 +19°C° 0.1 mm 2 m/s 693 mmHg 42%
14:00 +19°C° 0.1 mm 2 m/s 692 mmHg 42%
15:00 +19°C° 0.1 mm 2 m/s 692 mmHg 45%
16:00 +18°C° 0.1 mm 3 m/s 692 mmHg 48%
17:00 +18°C° 0.1 mm 3 m/s 692 mmHg 51%
18:00 +17°C° 0.1 mm 3 m/s 692 mmHg 54%
19:00 +16°C° 0.1 mm 3 m/s 692 mmHg 57%
20:00 +14°C° 0.1 mm 3 m/s 692 mmHg 60%
21:00 +14°C° 0.1 mm 3 m/s 692 mmHg 59%
22:00 +14°C° 0.1 mm 2 m/s 691 mmHg 58%
23:00 +14°C° 0.1 mm 2 m/s 691 mmHg 57%

Depois de amanhã, 20 Abril, Terça-feira

Tempo Temperatura Precipitação Vento Pressão Humidade
00:00 +13°C° 0 mm 2 m/s 691 mmHg 56%
01:00 +12°C° 0 mm 3 m/s 690 mmHg 55%
02:00 +11°C° 0 mm 3 m/s 690 mmHg 54%
03:00 +11°C° 0 mm 3 m/s 690 mmHg 53%
04:00 +11°C° 0 mm 3 m/s 689 mmHg 52%
05:00 +11°C° 0 mm 3 m/s 689 mmHg 51%
06:00 +13°C° 0 mm 2 m/s 689 mmHg 49%
07:00 +15°C° 0 mm 2 m/s 689 mmHg 47%
08:00 +18°C° 0 mm 1 m/s 689 mmHg 45%
09:00 +19°C° 0 mm 1 m/s 689 mmHg 45%
10:00 +18°C° 0 mm 2 m/s 689 mmHg 44%
11:00 +19°C° 0 mm 2 m/s 688 mmHg 43%
12:00 +19°C° 0.1 mm 2 m/s 688 mmHg 43%
13:00 +21°C° 0.1 mm 1 m/s 688 mmHg 43%
14:00 +21°C° 0.1 mm 1 m/s 688 mmHg 43%
15:00 +19°C° 0.3 mm 2 m/s 688 mmHg 48%
16:00 +18°C° 0.3 mm 2 m/s 688 mmHg 52%
17:00 +18°C° 0.3 mm 3 m/s 688 mmHg 56%
18:00 +17°C° 0.8 mm 3 m/s 688 mmHg 62%
19:00 +14°C° 0.8 mm 3 m/s 688 mmHg 68%
20:00 +14°C° 0.8 mm 2 m/s 689 mmHg 74%
21:00 +13°C° 1 mm 2 m/s 688 mmHg 77%
22:00 +13°C° 1 mm 2 m/s 688 mmHg 81%
23:00 +12°C° 1 mm 2 m/s 688 mmHg 85%

21 Abril, Quarta-feira

Tempo Temperatura Precipitação Vento Pressão Humidade
00:00 +12°C° 0.4 mm 2 m/s 687 mmHg 83%
01:00 +12°C° 0.4 mm 2 m/s 686 mmHg 81%
02:00 +12°C° 0.4 mm 1 m/s 686 mmHg 79%
03:00 +12°C° 0 mm 2 m/s 686 mmHg 80%
04:00 +10°C° 0 mm 2 m/s 686 mmHg 82%
05:00 +9°C° 0 mm 2 m/s 685 mmHg 84%
06:00 +9°C° 0 mm 3 m/s 686 mmHg 83%
07:00 +8°C° 0 mm 4 m/s 687 mmHg 83%
08:00 +8°C° 0 mm 4 m/s 687 mmHg 82%
09:00 +8°C° 2 mm 4 m/s 688 mmHg 83%
10:00 +9°C° 2 mm 3 m/s 688 mmHg 84%
11:00 +8°C° 2 mm 2 m/s 689 mmHg 85%
12:00 +7°C° 0.3 mm 2 m/s 689 mmHg 87%
13:00 +5°C° 0.3 mm 3 m/s 690 mmHg 90%
14:00 +5°C° 0.3 mm 3 m/s 691 mmHg 92%
15:00 +4°C° 0.3 mm 3 m/s 692 mmHg 91%
16:00 +4°C° 0.3 mm 3 m/s 692 mmHg 91%
17:00 +4°C° 0.3 mm 3 m/s 693 mmHg 90%
18:00 +4°C° 0.2 mm 2 m/s 694 mmHg 92%
19:00 +4°C° 0.2 mm 2 m/s 695 mmHg 94%
20:00 +3°C° 0.2 mm 2 m/s 695 mmHg 96%
21:00 +3°C° 0.3 mm 2 m/s 696 mmHg 96%
22:00 +2°C° 0.3 mm 2 m/s 696 mmHg 97%
23:00 +2°C° 0.3 mm 2 m/s 696 mmHg 97%

22 Abril, Quinta-feira

Tempo Temperatura Precipitação Vento Pressão Humidade
00:00 +2°C° 0.2 mm 2 m/s 696 mmHg 97%
01:00 +3°C° 0.2 mm 1 m/s 696 mmHg 97%
02:00 +3°C° 0.2 mm 1 m/s 696 mmHg 97%
03:00 +2°C° 0.2 mm 1 m/s 697 mmHg 97%
04:00 +2°C° 0.2 mm 1 m/s 697 mmHg 97%
05:00 +2°C° 0.2 mm 1 m/s 697 mmHg 96%
06:00 +2°C° 0.2 mm 1 m/s 697 mmHg 95%
07:00 +2°C° 0.2 mm 2 m/s 698 mmHg 94%
08:00 +2°C° 0.2 mm 2 m/s 698 mmHg 93%
09:00 +2°C° 0.2 mm 2 m/s 698 mmHg 91%
10:00 +3°C° 0.2 mm 2 m/s 698 mmHg 89%
11:00 +4°C° 0.2 mm 2 m/s 698 mmHg 87%
12:00 +4°C° 0.1 mm 2 m/s 699 mmHg 85%
13:00 +4°C° 0.1 mm 2 m/s 699 mmHg 82%
14:00 +5°C° 0.1 mm 2 m/s 699 mmHg 79%
15:00 +5°C° 0.1 mm 2 m/s 699 mmHg 80%
16:00 +5°C° 0.1 mm 2 m/s 699 mmHg 80%
17:00 +5°C° 0.1 mm 2 m/s 700 mmHg 80%
18:00 +5°C° 0.2 mm 1 m/s 700 mmHg 82%
19:00 +4°C° 0.2 mm 1 m/s 701 mmHg 85%
20:00 +4°C° 0.2 mm 1 m/s 701 mmHg 87%
21:00 +3°C° 0.1 mm 1 m/s 701 mmHg 85%
22:00 +2°C° 0.1 mm 2 m/s 702 mmHg 83%
23:00 +1°C° 0.1 mm 2 m/s 702 mmHg 81%

23 Abril, Sexta-feira

Tempo Temperatura Precipitação Vento Pressão Humidade
00:00 -1°C° 0 mm 2 m/s 702 mmHg 79%
01:00 -1°C° 0 mm 2 m/s 701 mmHg 76%
02:00 -2°C° 0 mm 2 m/s 701 mmHg 74%
03:00 -2°C° 0 mm 2 m/s 701 mmHg 70%
04:00 -2°C° 0 mm 2 m/s 701 mmHg 67%
05:00 -3°C° 0 mm 2 m/s 701 mmHg 64%
06:00 -1°C° 0 mm 2 m/s 701 mmHg 62%
07:00 +2°C° 0 mm 2 m/s 701 mmHg 61%
08:00 +4°C° 0 mm 2 m/s 701 mmHg 59%
09:00 +5°C° 0 mm 2 m/s 701 mmHg 58%
10:00 +6°C° 0 mm 2 m/s 700 mmHg 57%
11:00 +7°C° 0 mm 3 m/s 700 mmHg 56%
12:00 +7°C° 0 mm 3 m/s 700 mmHg 55%
13:00 +8°C° 0 mm 3 m/s 699 mmHg 53%
14:00 +8°C° 0 mm 3 m/s 699 mmHg 52%
15:00 +8°C° 0 mm 3 m/s 699 mmHg 52%
16:00 +8°C° 0 mm 3 m/s 699 mmHg 52%
17:00 +8°C° 0 mm 3 m/s 699 mmHg 52%
18:00 +5°C° 0 mm 3 m/s 700 mmHg 54%
19:00 +5°C° 0 mm 2 m/s 700 mmHg 55%
20:00 +3°C° 0 mm 2 m/s 700 mmHg 56%
21:00 +2°C° 0 mm 2 m/s 700 mmHg 54%
22:00 +2°C° 0 mm 2 m/s 700 mmHg 51%
23:00 +2°C° 0 mm 2 m/s 699 mmHg 48%
Mostrar mais